H1 CPF 2 NER 2021 12 17 9 351 01 glonass134 H2 1407501 9134 40315 2021 12 17 0 0 0 2021 12 20 23 45 0 900 1 1 0 0 0 1 H9 10 0 59565 0.00000 0 -21955004.327 473610.475 13053344.610 10 0 59565 900.00000 0 -20277178.762 -56243.319 15536371.717 10 0 59565 1800.00000 0 -18378958.678 -820277.225 17718919.548 10 0 59565 2700.00000 0 -16320523.168 -1831993.320 19558696.714 10 0 59565 3600.00000 0 -14165452.061 -3093016.976 21019994.045 10 0 59565 4500.00000 0 -11978198.762 -4592782.345 22074374.900 10 0 59565 5400.00000 0 -9821541.465 -6308733.618 22701230.231 10 0 59565 6300.00000 0 -7754117.218 -8207036.083 22888187.663 10 0 59565 7200.00000 0 -5828140.256 -10243770.090 22631366.168 10 0 59565 8100.00000 0 -4087398.696 -12366561.058 21935470.475 10 0 59565 9000.00000 0 -2565612.659 -14516580.482 20813721.931 10 0 59565 9900.00000 0 -1285222.456 -16630836.923 19287625.402 10 0 59565 10800.00000 0 -256657.919 -18644663.428 17386574.757 10 0 59565 11700.00000 0 521879.776 -20494298.742 15147302.526 10 0 59565 12600.00000 0 1064113.695 -22119454.841 12613182.625 10 0 59565 13500.00000 0 1394876.174 -23465762.914 9833398.138 10 0 59565 14400.00000 0 1548817.053 -24486994.242 6861989.289 10 0 59565 15300.00000 0 1568689.528 -25146961.039 3756799.818 10 0 59565 16200.00000 0 1503286.545 -25421015.482 578342.478 10 0 59565 17100.00000 0 1405116.185 -25297081.875 -2611393.366 10 0 59565 18000.00000 0 1327916.152 -24776176.706 -5750167.255 10 0 59565 18900.00000 0 1324114.884 -23872393.449 -8776720.578 10 0 59565 19800.00000 0 1442349.352 -22612352.023 -11631990.867 10 0 59565 20700.00000 0 1725147.263 -21034136.139 -14260281.634 10 0 59565 21600.00000 0 2206874.201 -19185763.903 -16610363.166 10 0 59565 22500.00000 0 2912034.633 -17123257.116 -18636481.383 10 0 59565 23400.00000 0 3854000.088 -14908391.949 -20299254.101 10 0 59565 24300.00000 0 5034219.179 -12606226.873 -21566436.937 10 0 59565 25200.00000 0 6441943.143 -10282512.820 -22413544.135 10 0 59565 26100.00000 0 8054478.314 -8001094.968 -22824312.947 10 0 59565 27000.00000 0 9837954.401 -5821415.150 -22791003.703 10 0 59565 27900.00000 0 11748575.624 -3796218.819 -22314531.128 10 0 59565 28800.00000 0 13734301.426 -1969561.302 -21404425.962 10 0 59565 29700.00000 0 15736885.699 -375194.704 -20078629.160 10 0 59565 30600.00000 0 17694188.797 964599.590 -18363124.167 10 0 59565 31500.00000 0 19542665.454 2039686.797 -16291415.680 10 0 59565 32400.00000 0 21219924.922 2852237.843 -13903866.050 10 0 59565 33300.00000 0 22667256.989 3416368.032 -11246902.901 10 0 59565 34200.00000 0 23832019.244 3757273.195 -8372113.837 10 0 59565 35100.00000 0 24669787.112 3909901.968 -5335245.941 10 0 59565 36000.00000 0 25146178.204 3917221.859 -2195129.305 10 0 59565 36900.00000 0 25238276.142 3828153.190 987454.862 10 0 59565 37800.00000 0 24935595.698 3695258.551 4150940.232 10 0 59565 38700.00000 0 24240549.993 3572285.092 7234153.777 10 0 59565 39600.00000 0 23168400.976 3511662.811 10177484.688 10 0 59565 40500.00000 0 21746695.531 3562063.515 12924022.396 10 0 59565 41400.00000 0 20014210.520 3766122.528 15420642.925 10 0 59565 42300.00000 0 18019450.039 4158418.340 17619023.784 10 0 59565 43200.00000 0 15818756.317 4763794.845 19476569.040 10 0 59565 44100.00000 0 13474111.298 5596096.814 20957227.725 10 0 59565 45000.00000 0 11050718.586 6657372.361 22032190.568 10 0 59565 45900.00000 0 8614464.338 7937577.245 22680452.023 10 0 59565 46800.00000 0 6229360.783 9414795.376 22889226.776 10 0 59565 47700.00000 0 3955077.034 11055968.725 22654212.196 10 0 59565 48600.00000 0 1844658.593 12818108.917 21979690.713 10 0 59565 49500.00000 0 -57470.391 14649942.738 20878468.752 10 0 59565 50400.00000 0 -1717139.123 16493925.403 19371651.646 10 0 59565 51300.00000 0 -3111628.195 18288539.680 17488256.928 10 0 59565 52200.00000 0 -4230383.092 19970786.305 15264671.459 10 0 59565 53100.00000 0 -5075212.415 21478762.169 12743961.101 10 0 59565 54000.00000 0 -5659961.802 22754218.225 9975044.775 10 0 59565 54900.00000 0 -6009676.599 23744988.925 7011747.899 10 0 59565 55800.00000 0 -6159288.252 24407189.566 3911753.261 10 0 59565 56700.00000 0 -6151880.151 24707087.186 735469.927 10 0 59565 57600.00000 0 -6036607.062 24622564.030 -2455156.901 10 0 59565 58500.00000 0 -5866357.591 24144109.847 -5597870.389 10 0 59565 59400.00000 0 -5695260.671 23275299.400 -8631335.261 10 0 59565 60300.00000 0 -5576144.037 22032733.817 -11496353.611 10 0 59565 61200.00000 0 -5558054.813 20445447.660 -14137037.492 10 0 59565 62100.00000 0 -5683949.688 18553806.709 -16501913.625 10 0 59565 63000.00000 0 -5988654.540 16407943.466 -18544937.255 10 0 59565 63900.00000 0 -6497181.492 14065797.219 -20226394.353 10 0 59565 64800.00000 0 -7223475.571 11590842.186 -21513674.261 10 0 59565 65700.00000 0 -8169644.379 9049600.170 -22381897.915 10 0 59565 66600.00000 0 -9325703.130 6509042.894 -22814390.084 10 0 59565 67500.00000 0 -10669845.262 4033993.083 -22802987.604 10 0 59565 68400.00000 0 -12169226.409 1684632.699 -22348179.014 10 0 59565 69300.00000 0 -13781227.801 -485778.431 -21459074.445 10 0 59565 70200.00000 0 -15455145.113 -2432879.962 -20153207.960 10 0 59565 71100.00000 0 -17134231.229 -4122804.061 -18456177.624 10 0 59565 72000.00000 0 -18758006.771 -5533320.209 -16401131.615 10 0 59565 72900.00000 0 -20264741.546 -6654486.986 -14028111.387 10 0 59565 73800.00000 0 -21594003.272 -7488786.693 -11383265.347 10 0 59565 74700.00000 0 -22689167.478 -8050740.120 -8517948.795 10 0 59565 75600.00000 0 -23499784.447 -8366020.312 -5487727.749 10 0 59565 76500.00000 0 -23983705.285 -8470104.765 -2351305.791 10 0 59565 77400.00000 0 -24108879.297 -8406524.273 830605.529 10 0 59565 78300.00000 0 -23854748.681 -8224783.114 3996451.509 10 0 59565 79200.00000 0 -23213183.150 -7978038.498 7085012.590 10 0 59565 80100.00000 0 -22188916.087 -7720636.812 10036574.257 10 0 59565 81000.00000 0 -20799464.312 -7505609.854 12794067.073 10 0 59565 81900.00000 0 -19074534.523 -7382235.684 15304156.082 10 0 59565 82800.00000 0 -17054940.492 -7393765.887 17518259.675 10 0 59565 83700.00000 0 -14791074.899 -7575414.162 19393479.522 10 0 59565 84600.00000 0 -12340997.695 -7952690.455 20893424.644 10 0 59565 85500.00000 0 -9768218.607 -8540150.749 21988914.490 10 0 59566 0.00000 0 -7139263.992 -9340615.680 22658547.878 10 0 59566 900.00000 0 -4521125.508 -10344892.585 22889127.136 10 0 59566 1800.00000 0 -1978698.227 -11532013.473 22675927.972 10 0 59566 2700.00000 0 427691.804 -12869982.779 22022810.161 10 0 59566 3600.00000 0 2644565.416 -14317005.205 20942164.490 10 0 59566 4500.00000 0 4627280.862 -15823145.229 19454695.718 10 0 59566 5400.00000 0 6341653.998 -17332351.066 17589043.709 10 0 59566 6300.00000 0 7765140.238 -18784760.138 15381248.031 10 0 59566 7200.00000 0 8887528.073 -20119190.433 12874064.581 10 0 59566 8100.00000 0 9711114.391 -21275713.539 10116145.948 10 0 59566 9000.00000 0 10250353.454 -22198200.684 7161100.326 10 0 59566 9900.00000 0 10530993.804 -22836733.383 4066446.932 10 0 59566 10800.00000 0 10588739.441 -23149775.316 892488.391 10 0 59566 11700.00000 0 10467492.353 -23106011.664 -2298877.085 10 0 59566 12600.00000 0 10217251.754 -22685775.989 -5445379.134 10 0 59566 13500.00000 0 9891760.642 -21882002.335 -8485608.628 10 0 59566 14400.00000 0 9546001.458 -20700660.594 -11360234.948 10 0 59566 15300.00000 0 9233649.203 -19160655.642 -14013181.296 10 0 59566 16200.00000 0 9004592.327 -17293193.937 -16392733.276 10 0 59566 17100.00000 0 8902628.446 -15140644.295 -18452557.695 10 0 59566 18000.00000 0 8963434.148 -12754941.411 -20152610.655 10 0 59566 18900.00000 0 9212895.890 -10195600.060 -21459916.890 10 0 59566 19800.00000 0 9665873.070 -7527424.255 -22349205.336 10 0 59566 20700.00000 0 10325445.357 -4818008.296 -22803389.201 10 0 59566 21600.00000 0 11182675.458 -2135134.720 -22813882.364 10 0 59566 22500.00000 0 12216896.303 455822.085 -22380747.328 10 0 59566 23400.00000 0 13396509.351 2894378.732 -21512673.425 10 0 59566 24300.00000 0 14680259.191 5127209.849 -20226787.286 10 0 59566 25200.00000 0 16018929.784 7110106.577 -18548300.730 10 0 59566 26100.00000 0 17357390.199 8809547.185 -16510004.226 10 0 59566 27000.00000 0 18636903.476 10203817.092 -14151616.812 10 0 59566 27900.00000 0 19797601.614 11283634.548 -11519005.806 10 0 59566 28800.00000 0 20781023.085 12052258.765 -8663292.001 10 0 59566 29700.00000 0 21532607.069 12525078.873 -5639857.810 10 0 59566 30600.00000 0 22004040.701 12728703.415 -2507277.503 10 0 59566 31500.00000 0 22155361.912 12699590.513 673810.041 10 0 59566 32400.00000 0 21956730.806 12482277.654 3841864.852 10 0 59566 33300.00000 0 21389796.252 12127286.265 6935623.968 10 0 59566 34200.00000 0 20448601.166 11688789.305 9895272.208 10 0 59566 35100.00000 0 19139988.861 11222139.674 12663584.170 10 0 59566 36000.00000 0 17483493.289 10781362.652 15187016.603 10 0 59566 36900.00000 0 15510717.040 10416716.909 17416731.236 10 0 59566 37800.00000 0 13264221.793 10172425.698 19309529.536 10 0 59566 38700.00000 0 10795975.669 10084672.835 20828682.430 10 0 59566 39600.00000 0 8165420.032 10179947.277 21944639.708 10 0 59566 40500.00000 0 5437233.718 10473805.927 22635605.927 10 0 59566 41400.00000 0 2678885.138 10970107.338 22887971.737 10 0 59566 42300.00000 0 -41928.347 11660749.767 22696591.866 10 0 59566 43200.00000 0 -2659849.472 12525926.440 22064903.481 10 0 59566 44100.00000 0 -5114333.428 13534889.553 21004881.299 10 0 59566 45000.00000 0 -7351921.670 14647193.359 19536828.573 10 0 59566 45900.00000 0 -9328223.024 15814366.494 17689006.080 10 0 59566 46800.00000 0 -11009519.426 16981945.314 15497104.237 10 0 59566 47700.00000 0 -12373928.599 18091784.198 13003566.758 10 0 59566 48600.00000 0 -13412074.257 19084546.331 10256777.387 10 0 59566 49500.00000 0 -14127234.861 19902269.983 7310124.385 10 0 59566 50400.00000 0 -14534963.895 20490901.161 4220960.553 10 0 59566 51300.00000 0 -14662197.299 20802684.194 1049479.162 10 0 59566 52200.00000 0 -14545885.870 20798307.186 -2142471.519 10 0 59566 53100.00000 0 -14231211.054 20448709.341 -5292610.526 10 0 59566 54000.00000 0 -13769460.970 19736471.428 -8339457.739 10 0 59566 54900.00000 0 -13215658.306 18656728.516 -11223552.584 10 0 59566 55800.00000 0 -12626042.687 17217564.816 -13888631.991 10 0 59566 56700.00000 0 -12055516.365 15439872.892 -16282742.820 10 0 59566 57600.00000 0 -11555163.503 13356682.684 -18359265.551 10 0 59566 58500.00000 0 -11169949.783 11011988.748 -20077828.262 10 0 59566 59400.00000 0 -10936700.888 8459125.512 -21405092.629 10 0 59566 60300.00000 0 -10882445.910 5758759.485 -22315396.842 10 0 59566 61200.00000 0 -11023195.569 2976583.375 -22791243.496 10 0 59566 62100.00000 0 -11363206.160 180809.229 -22823624.132 10 0 59566 63000.00000 0 -11894759.112 -2560434.529 -22412175.481 10 0 59566 63900.00000 0 -12598463.990 -5181693.646 -21565165.950 10 0 59566 64800.00000 0 -13444070.592 -7622659.099 -20299314.213 10 0 59566 65700.00000 0 -14391754.429 -9830417.126 -18639444.901 10 0 59566 66600.00000 0 -15393820.198 -11761386.381 -16617989.440 10 0 59566 67500.00000 0 -16396750.625 -13382863.988 -14274342.748 10 0 59566 68400.00000 0 -17343513.987 -14674118.770 -11654089.058 10 0 59566 69300.00000 0 -18176033.149 -15626988.843 -8808112.391 10 0 59566 70200.00000 0 -18837712.648 -16245961.503 -5791609.110 10 0 59566 71100.00000 0 -19275918.222 -16547734.648 -2663021.568 10 0 59566 72000.00000 0 -19444305.456 -16560280.273 517086.753 10 0 59566 72900.00000 0 -19304900.709 -16321450.998 3687193.451 10 0 59566 73800.00000 0 -18829847.839 -15877189.200 6785995.066 10 0 59566 74700.00000 0 -18002748.174 -15279414.345 9753578.706 10 0 59566 75600.00000 0 -16819537.919 -14583677.222 12532565.940 10 0 59566 76500.00000 0 -15288866.154 -13846678.991 15069208.087 10 0 59566 77400.00000 0 -13431956.994 -13123758.376 17314412.904 10 0 59566 78300.00000 0 -11281960.492 -12466451.456 19224684.106 10 0 59566 79200.00000 0 -8882817.570 -11920225.482 20762956.645 10 0 59566 80100.00000 0 -6287684.133 -11522481.029 21899312.379 10 0 59566 81000.00000 0 -3556977.418 -11300905.897 22611562.863 10 0 59566 81900.00000 0 -756123.053 -11272249.915 22885688.055 10 0 59566 82800.00000 0 2046906.067 -11441572.726 22716122.042 10 0 59566 83700.00000 0 4784159.318 -11801997.315 22105879.401 10 0 59566 84600.00000 0 7390281.527 -12334981.348 21066518.405 10 0 59566 85500.00000 0 9804984.137 -13011096.934 19617940.067 10 0 59567 0.00000 0 11975312.217 -13791288.045 17788025.176 10 0 59567 900.00000 0 13857614.102 -14628555.154 15612113.238 10 0 59567 1800.00000 0 15419128.168 -15469996.635 13132334.158 10 0 59567 2700.00000 0 16639123.517 -16259123.267 10396800.703 10 0 59567 3600.00000 0 17509542.794 -16938347.454 7458678.730 10 0 59567 4500.00000 0 18035120.374 -17451541.868 4375151.852 10 0 59567 5400.00000 0 18232970.034 -17746558.060 1206300.973 10 0 59567 6300.00000 0 18131659.221 -17777596.613 -1986078.734 10 0 59567 7200.00000 0 17769809.236 -17507326.263 -5139698.911 10 0 59567 8100.00000 0 17194281.379 -16908659.902 -8193011.601 10 0 59567 9000.00000 0 16458027.209 -15966109.935 -11086429.296 10 0 59567 9900.00000 0 15617695.717 -14676663.710 -13763505.487 10 0 59567 10800.00000 0 14731100.766 -13050140.496 -16172050.865 10 0 59567 11700.00000 0 13854658.026 -11109013.986 -18265161.904 10 0 59567 12600.00000 0 13040901.600 -8887707.475 -20002140.652 10 0 59567 13500.00000 0 12336186.715 -6431391.507 -21349287.396 10 0 59567 14400.00000 0 11778676.200 -3794334.941 -22280550.887 10 0 59567 15300.00000 0 11396695.855 -1037879.266 -22778024.031 10 0 59567 16200.00000 0 11207527.414 1771878.401 -22832276.572 10 0 59567 17100.00000 0 11216688.781 4566596.509 -22442519.638 10 0 59567 18000.00000 0 11417730.212 7278289.513 -21616600.514 10 0 59567 18900.00000 0 11792553.104 9841909.676 -20370829.377 10 0 59567 19800.00000 0 12312236.022 12197803.711 -18729642.809 10 0 59567 20700.00000 0 12938331.386 14293943.411 -16725111.999 10 0 59567 21600.00000 0 13624576.698 16087839.424 -14396306.238 10 0 59567 22500.00000 0 14318947.213 17548060.861 -11788524.831 10 0 59567 23400.00000 0 14965963.003 18655299.910 -8952412.867 10 0 59567 24300.00000 0 15509153.141 19402939.750 -5942978.181 10 0 59567 25200.00000 0 15893573.597 19797104.637 -2818528.474 10 0 59567 26100.00000 0 16068273.435 19856192.261 360451.118 10 0 59567 27000.00000 0 15988606.426 19609909.864 3532458.817 10 0 59567 27900.00000 0 15618291.672 19097855.787 6636153.758 10 0 59567 28800.00000 0 14931137.445 18367706.616 9611528.370 10 0 59567 29700.00000 0 13912356.318 17473086.089 12401054.097 10 0 59567 30600.00000 0 12559416.464 16471204.735 14950779.550 10 0 59567 31500.00000 0 10882393.058 15420368.412 17211361.018 10 0 59567 32400.00000 0 8903803.992 14377459.113 19139006.721 10 0 59567 33300.00000 0 6657935.143 13395492.441 20696317.623 10 0 59567 34200.00000 0 4189681.215 12521353.023 21853009.356 10 0 59567 35100.00000 0 1552947.877 11793801.886 22586501.848 10 0 59567 36000.00000 0 -1191321.165 11241838.842 22882365.368 10 0 59567 36900.00000 0 -3977412.897 10883488.578 22734613.956 10 0 59567 37800.00000 0 -6737317.972 10725061.923 22145839.733 10 0 59567 38700.00000 0 -9403307.483 10760924.381 21127184.157 10 0 59567 39600.00000 0 -11910508.125 10973783.159 19698145.125 10 0 59567 40500.00000 0 -14199369.747 11335482.358 17886221.685 10 0 59567 41400.00000 0 -16217922.990 11808274.614 15726401.252 10 0 59567 42300.00000 0 -17923732.512 12346517.188 13260497.367 10 0 59567 43200.00000 0 -19285463.498 12898722.034 10536349.281 10 0 59567 44100.00000 0 -20283994.785 13409873.803 7606897.683 10 0 59567 45000.00000 0 -20913030.650 13823917.540 4529154.128 10 0 59567 45900.00000 0 -21179184.533 14086309.838 1363084.232 10 0 59567 46800.00000 0 -21101530.418 14146523.796 -1829572.842 10 0 59567 47700.00000 0 -20710640.590 13960399.532 -4986524.212 10 0 59567 48600.00000 0 -20047150.777 13492238.236 -8046156.887 10 0 59567 49500.00000 0 -19159914.323 12716548.583 -10948759.129 10 0 59567 50400.00000 0 -18103824.929 11619369.332 -13637703.543 10 0 59567 51300.00000 0 -16937401.870 10199110.308 -16060567.028 10 0 59567 52200.00000 0 -15720241.739 8466874.822 -18170164.172 10 0 59567 53100.00000 0 -14510446.235 6446249.266 -19925472.835 10 0 59567 54000.00000 0 -13362136.083 4172568.422 -21292433.433 10 0 59567 54900.00000 0 -12323156.874 1691687.597 -22244606.449 10 0 59567 55800.00000 0 -11433073.828 -941686.380 -22763675.935 10 0 59567 56700.00000 0 -10721539.441 -3666034.834 -22839790.313 10 0 59567 57600.00000 0 -10207101.596 -6415351.810 -22471735.224 10 0 59567 58500.00000 0 -9896500.551 -9121656.183 -21666936.593 10 0 59567 59400.00000 0 -9784482.283 -11717586.685 -20441295.505 10 0 59567 60300.00000 0 -9854133.700 -14138972.377 -18818859.554 10 0 59567 61200.00000 0 -10077723.356 -16327272.500 -16831338.433 10 0 59567 62100.00000 0 -10418010.218 -18231785.738 -14517474.263 10 0 59567 63000.00000 0 -10829963.697 -19811538.854 -11922279.632 10 0 59567 63900.00000 0 -11262821.336 -21036778.193 -9096158.721 10 0 59567 64800.00000 0 -11662396.774 -21890004.318 -6093928.717 10 0 59567 65700.00000 0 -11973540.608 -22366508.971 -2973760.415 10 0 59567 66600.00000 0 -12142650.740 -22474394.127 203941.735 10 0 59567 67500.00000 0 -12120127.070 -22234074.252 3377699.035 10 0 59567 68400.00000 0 -11862667.905 -21677283.998 6486135.762 10 0 59567 69300.00000 0 -11335312.254 -20845633.783 9469152.300 10 0 59567 70200.00000 0 -10513142.708 -19788774.029 12269072.663 10 0 59567 71100.00000 0 -9382577.616 -18562244.723 14831745.442 10 0 59567 72000.00000 0 -7942198.159 -17225099.597 17107578.090 10 0 59567 72900.00000 0 -6203074.884 -15837403.319 19052485.816 10 0 59567 73800.00000 0 -4188578.577 -14457705.121 20628737.860 10 0 59567 74700.00000 0 -1933681.480 -13140593.241 21805685.591 10 0 59567 75600.00000 0 516224.539 -11934431.283 22560358.933 10 0 59567 76500.00000 0 3106946.458 -10879370.262 22877919.716 10 0 59567 77400.00000 0 5777480.790 -10005719.069 22751962.786 10 0 59567 78300.00000 0 8462296.598 -9332741.546 22184658.268 10 0 59567 79200.00000 0 11093818.558 -8867931.105 21186730.893 10 0 59567 80100.00000 0 13605008.819 -8606794.290 19777275.137 10 0 59567 81000.00000 0 15931941.710 -8533153.645 17983407.828 10 0 59567 81900.00000 0 18016264.815 -8619958.615 15839762.904 10 0 59567 82800.00000 0 19807443.665 -8830571.707 13387836.266 10 0 59567 83700.00000 0 21264695.685 -9120476.786 10675191.798 10 0 59567 84600.00000 0 22358531.344 -9439337.936 7754542.788 10 0 59567 85500.00000 0 23071836.454 -9733321.864 4682726.096 10 0 59568 0.00000 0 23400448.818 -9947584.776 1519589.383 10 0 59568 900.00000 0 23353203.899 -10028817.084 -1673187.977 10 0 59568 1800.00000 0 22951446.520 -9927735.877 -4833311.633 10 0 59568 2700.00000 0 22228029.657 -9601417.503 -7899106.925 10 0 59568 3600.00000 0 21225842.551 -9015368.593 -10810741.131 10 0 59568 4500.00000 0 19995931.641 -8145245.474 -13511409.044 10 0 59568 5400.00000 0 18595295.173 -6978147.037 -15948456.575 10 0 59568 6300.00000 0 17084446.364 -5513424.667 -18074418.941 10 0 59568 7200.00000 0 15524849.819 -3762973.971 -19847952.010 10 0 59568 8100.00000 0 13976340.827 -1750995.388 -21234638.201 10 0 59568 9000.00000 0 12494637.390 486766.331 -22207651.270 10 0 59568 9900.00000 0 11129050.224 2904271.467 -22748267.594 10 0 59568 10800.00000 0 9920486.797 5446870.620 -22846215.101 10 0 59568 11700.00000 0 8899832.284 8053354.888 -22499854.401 10 0 59568 12600.00000 0 8086773.868 10658284.729 -21716190.148 10 0 59568 13500.00000 0 7489115.552 13194500.203 -20510714.048 10 0 59568 14400.00000 0 7102609.732 15595708.172 -18907084.051 10 0 59568 15300.00000 0 6911310.006 17799039.230 -16936647.332 10 0 59568 16200.00000 0 6888427.810 19747469.013 -14637817.446 10 0 59568 17100.00000 0 6997654.608 21392004.554 -12055318.510 10 0 59568 18000.00000 0 7194892.198 22693546.362 -9239311.671 10 0 59568 18900.00000 0 7430316.996 23624350.709 -6244421.007 10 0 59568 19800.00000 0 7650690.607 24169033.240 -3128677.647 10 0 59568 20700.00000 0 7801819.178 24325074.054 47597.642 10 0 59568 21600.00000 0 7831058.134 24102804.973 3222952.390 10 0 59568 22500.00000 0 7689757.327 23524881.001 6335979.225 10 0 59568 23400.00000 0 7335544.354 22625259.015 9326489.669 10 0 59568 24300.00000 0 6734350.588 21447726.861 12136663.378 10 0 59568 25200.00000 0 5862095.171 20044044.208 14712151.832 10 0 59568 26100.00000 0 4705956.307 18471772.296 17003116.339 10 0 59568 27000.00000 0 3265176.033 16791882.218 18965181.542 10 0 59568 27900.00000 0 1551363.664 15066240.269 20560287.130 10 0 59568 28800.00000 0 -411716.440 13355073.963 21757422.082 10 0 59568 29700.00000 0 -2588866.191 11714523.029 22533227.857 10 0 59568 30600.00000 0 -4934656.832 10194376.353 22872458.996 10 0 59568 31500.00000 0 -7395066.489 8836088.515 22768291.887 10 0 59568 32400.00000 0 -9909487.096 7671158.262 22222474.914 10 0 59568 33300.00000 0 -12413019.979 6719936.730 21245315.823 10 0 59568 34200.00000 0 -14838966.893 5990915.796 19855504.879 10 0 59568 35100.00000 0 -17121414.600 5480527.233 18079775.351 10 0 59568 36000.00000 0 -19197806.341 5173462.197 15952405.865 10 0 59568 36900.00000 0 -21011393.146 5043498.805 13514572.387 10 0 59568 37800.00000 0 -22513462.106 5054803.909 10813560.785 10 0 59568 38700.00000 0 -23665247.316 5163654.819 7901854.025 10 0 59568 39600.00000 0 -24439441.841 5320508.343 4836111.205 10 0 59568 40500.00000 0 -24821245.597 5472329.076 1676058.308 10 0 59568 41400.00000 0 -24808903.557 5565077.172 -1516687.071 10 0 59568 42300.00000 0 -24413710.339 5546248.383 -4679832.767 10 0 59568 43200.00000 0 -23659480.360 5367356.425 -7751645.433 10 0 59568 44100.00000 0 -22581505.788 4986249.928 -10672174.242 10 0 59568 45000.00000 0 -21225046.862 4369163.269 -13384438.877 10 0 59568 45900.00000 0 -19643419.419 3492412.071 -15835556.761 10 0 59568 46800.00000 0 -17895761.770 2343659.689 -17977785.955 10 0 59568 47700.00000 0 -16044576.790 922699.775 -19769462.221 10 0 59568 48600.00000 0 -14153154.297 -758278.986 -21175811.460 10 0 59568 49500.00000 0 -12282983.414 -2674957.443 -22169621.744 10 0 59568 50400.00000 0 -10491264.436 -4791668.549 -22731762.379 10 0 59568 51300.00000 0 -8828624.704 -7062664.643 -22851540.952 10 0 59568 52200.00000 0 -7337133.574 -9433815.770 -22526892.784 10 0 59568 53100.00000 0 -6048698.362 -11844667.315 -21764400.611 10 0 59568 54000.00000 0 -4983906.386 -14230770.608 -20579145.774 10 0 59568 54900.00000 0 -4151359.092 -16526189.098 -18994395.291 10 0 59568 55800.00000 0 -3547523.420 -18666075.758 -17041132.283 10 0 59568 56700.00000 0 -3157103.712 -20589214.976 -14757439.997 10 0 59568 57600.00000 0 -2953915.864 -22240424.049 -12187752.178 10 0 59568 58500.00000 0 -2902224.626 -23572715.533 -9381984.937 10 0 59568 59400.00000 0 -2958485.947 -24549131.988 -6394567.163 10 0 59568 60300.00000 0 -3073419.713 -25144178.393 -3283388.208 10 0 59568 61200.00000 0 -3194324.927 -25344794.223 -108682.993 10 0 59568 62100.00000 0 -3267539.598 -25150826.285 3068124.428 10 0 59568 63000.00000 0 -3240941.993 -24574983.928 6185597.273 10 0 59568 63900.00000 0 -3066388.438 -23642279.470 9183460.486 10 0 59568 64800.00000 0 -2701985.691 -22388977.724 12003751.683 10 0 59568 65700.00000 0 -2114102.843 -20861098.417 14591927.561 10 0 59568 66600.00000 0 -1279038.510 -19112533.523 16897905.563 10 0 59568 67500.00000 0 -184273.173 -17202857.034 18877021.949 10 0 59568 68400.00000 0 1170746.542 -15194917.136 20490888.864 10 0 59568 69300.00000 0 2774325.762 -13152309.621 21708134.680 10 0 59568 70200.00000 0 4602755.140 -11136836.159 22505013.888 10 0 59568 71100.00000 0 6621053.234 -9206051.794 22865874.934 10 0 59568 72000.00000 0 8784189.239 -7411002.611 22783476.603 10 0 59568 72900.00000 0 11038738.129 -5794247.016 22259146.063 10 0 59568 73800.00000 0 13324902.160 -4388242.695 21302774.265 10 0 59568 74700.00000 0 15578817.051 -3214166.754 19932647.127 10 0 59568 75600.00000 0 17735048.827 -2281218.813 18175113.901 10 0 59568 76500.00000 0 19729178.577 -1586437.026 16064097.102 10 0 59568 77400.00000 0 21500367.728 -1115035.759 13640451.625 10 0 59568 78300.00000 0 22993796.412 -841251.565 10951183.818 10 0 59568 79200.00000 0 24162871.908 -729662.495 8048544.445 10 0 59568 80100.00000 0 24971113.028 -736925.327 4989012.587 10 0 59568 81000.00000 0 25393629.544 -813856.913 1832190.242 10 0 59568 81900.00000 0 25418132.574 -907770.624 -1360370.231 10 0 59568 82800.00000 0 25045431.698 -964967.352 -4526381.649 10 0 59568 83700.00000 0 24289396.668 -933273.410 -7604055.147 10 0 59568 84600.00000 0 23176384.630 -764515.312 -10533324.932 10 0 59568 85500.00000 0 21744157.046 -416824.009 -13257038.588 99